Terminal Aerodrome Forecast
Issued by NWS

Home | Current Version | Previous Version | Text Only | Print | Product List | Glossary On
Versions: 1 2 3 4 5 6 7 8 9 10 11 12
000
FTUS42 KTBW 020540
TAFRSW
TAF
KRSW 020540Z 0206/0306 VRB03KT P6SM FEW150 SCT250
     FM021500 14006KT P6SM SCT030 SCT250
     FM021800 VRB04KT P6SM VCTS SCT050CB BKN250
     FM030000 VRB04KT P6SM VCTS SCT025CB OVC250=

USA.gov is the U.S. government's official web portal to all federal, state and local government web resources and services.